[[{"header":{"parameterUnit":"m.s-1","parameterCategory":1,"la1":30.2991,"la2":30.254,"lo1":-89.0895,"lo2":-89.0444,"dy":0.0017,"dx":0.0017,"nx":28,"ny":28,"refTime":"2024-05-31T03:00:00:Z","depth":0,"parameterNumber":2,"parameterNumberName":"U-component_of_WINDS"},"data":[0,0,0,0,0,0,0,0,0,0,0,0,0,0,0,0,0,0,0,0,0,0,0,0,0,0,0,0,0,0,0,0,0,0,0,0,0,0,0,0,0,0,0,0,0,0,0,0,0,0,0,0,0,0,0,0,0,0,-1.8895,-1.8896,0,-1.9017,-1.9018,-1.9019,-1.9036,-1.9035,-1.9034,-1.9033,-1.9159,-1.9163,-1.9168,0,0,0,0,0,0,0,0,0,0,0,0,0,-1.8677,-1.8681,-1.8894,-1.8896,-1.8898,-1.9016,-1.9018,-1.902,-1.9036,-1.9035,-1.9033,-1.9032,-1.9158,-1.9163,-1.9168,0,0,0,0,0,0,0,0,0,0,0,0,0,-1.8783,-1.8682,-1.8894,-1.892,-1.8924,-1.9016,-1.9018,-1.902,-1.9036,-1.9035,-1.9033,-1.9031,-1.9156,-1.9162,-1.9169,-1.9245,0,0,-1.9189,-1.9192,0,0,0,0,0,0,0,0,-1.8777,-1.8791,-1.8915,-1.8918,-1.8923,-1.9009,-1.8988,-1.9096,-1.9037,-1.8994,-1.9033,-1.9031,-1.9111,-1.9121,-1.9148,-1.9251,-1.9256,-1.919,-1.9194,-1.9197,-1.9199,0,0,0,0,0,0,0,-1.8769,-1.8786,-1.8943,-1.8917,-1.8921,-1.8926,-1.8939,-1.9008,-1.9061,-1.8997,-1.8999,-1.9013,-1.9113,-1.9141,-1.9151,-1.9258,-1.919,-1.9196,-1.92,-1.9202,-1.9429,-1.9431,0,0,0,0,0,0,-1.8757,-1.8779,-1.8939,-1.8947,-1.8844,-1.8931,-1.8946,-1.8983,-1.906,-1.907,-1.9014,-1.9013,-1.9131,-1.9143,-1.9155,-1.9249,-1.9197,-1.9203,-1.9207,-1.9427,-1.943,-1.9432,0,0,0,0,0,0,-1.8752,-1.8771,-1.8934,-1.8863,-1.8884,-1.8937,-1.8979,-1.8987,-1.9015,-1.9073,-1.9082,-1.9034,-1.913,-1.9146,-1.9222,-1.9254,-1.9206,-1.9212,-1.9425,-1.9428,-1.9431,-1.9437,0,0,0,0,0,0,-1.8746,-1.8769,-1.8798,-1.8864,-1.8888,-1.8998,-1.8981,-1.899,-1.9027,-1.9026,-1.9094,-1.9103,-1.913,-1.9212,-1.9229,-1.9262,-1.9217,-1.9422,-1.9426,-1.943,-1.9434,-1.9439,-1.9444,0,0,0,0,0,-1.8738,-1.8796,-1.88,-1.8819,-1.8925,-1.9,-1.9014,-1.9043,-1.9029,-1.9059,-1.9096,-1.9101,-1.9248,-1.922,-1.9239,-1.9274,-1.942,-1.9425,-1.9429,-1.9432,-1.9438,-1.9444,0,0,0,0,0,0,-1.8733,-1.8805,-1.881,-1.889,-1.8939,-1.9003,-1.9041,-1.905,-1.9104,-1.9102,-1.9136,-1.9151,-1.9226,-1.9258,-1.9226,-1.9352,-1.9333,-1.9341,-1.9328,-1.9335,-1.934,-1.933,-1.9223,0,0,0,0,0,-1.8741,-1.8795,-1.8855,-1.892,-1.8944,-1.8989,-1.9022,-1.904,-1.9093,-1.9113,-1.9156,-1.9207,-1.9264,-1.9301,-1.9358,-1.9439,-1.9454,-1.9473,-1.9478,-1.9482,-1.9489,-1.9534,-1.9543,-1.9447,-1.9447,-1.9447,0,0,-1.8759,-1.8804,-1.8837,-1.892,-1.896,-1.9016,-1.9006,-1.9065,-1.9107,-1.9123,-1.9197,-1.923,-1.9289,-1.9368,-1.9405,-1.9397,-1.9518,-1.9487,-1.949,-1.9495,-1.9539,-1.9548,-1.9556,-1.945,-1.9449,-1.9449,0,0,-1.8819,-1.8859,-1.8917,-1.8957,-1.9017,-1.9047,-1.906,-1.9123,-1.9146,-1.9221,-1.9233,-1.9284,-1.9382,-1.9424,-1.9458,-1.9533,-1.954,-1.9551,-1.9578,-1.9621,-1.9629,-1.9636,-1.9663,-1.9672,-1.9557,-1.9557,-1.9558,0,-1.8833,-1.8917,-1.8946,-1.9005,-1.9042,-1.9058,-1.9117,-1.9155,-1.9231,-1.9256,-1.9246,-1.9369,-1.941,-1.9499,-1.9517,-1.9544,-1.9561,-1.9543,-1.9625,-1.9633,-1.9639,-1.9665,-1.9675,-1.9558,-1.9558,-1.9558,-1.9558,0,-1.8931,-1.8989,-1.9029,-1.9101,-1.9142,-1.9201,-1.924,-1.9278,-1.9293,-1.9323,-1.9399,-1.9449,-1.9515,-1.9538,-1.9553,-1.9629,-1.9622,-1.9618,-1.96,-1.9649,-1.9674,-1.9684,-1.956,-1.9559,-1.9559,-1.9559,0,0,-1.8992,-1.9079,-1.9093,-1.9126,-1.9193,-1.9239,-1.9299,-1.9363,-1.9395,-1.9447,-1.9498,-1.9581,-1.9577,-1.9616,-1.9636,-1.9674,-1.9731,-1.9666,-1.9668,-1.9676,-1.9817,-1.9819,-1.983,-1.9736,-1.9738,-1.974,-1.9812,0,-1.906,-1.9166,-1.9194,-1.9284,-1.9338,-1.9354,-1.9406,-1.9453,-1.9483,-1.9534,-1.9567,-1.9625,-1.9617,-1.964,-1.9679,-1.9716,-1.976,-1.9711,-1.9784,-1.9786,-1.9768,-1.9843,-1.9846,-1.9912,-1.9822,-1.9824,-1.9825,0,-1.9153,-1.9206,-1.9301,-1.9361,-1.9385,-1.9431,-1.9492,-1.954,-1.9594,-1.9613,-1.9656,-1.9672,-1.9736,-1.9714,-1.9802,-1.9768,-1.98,-1.9823,-1.9826,-1.9834,-1.9808,-1.9853,-1.9934,-1.9944,-1.9841,-1.984,-1.9838,0,-1.9187,-1.9282,-1.9352,-1.9379,-1.9451,-1.9483,-1.9515,-1.9567,-1.9604,-1.9657,-1.9681,-1.9742,-1.9775,-1.9822,-1.9854,-1.9835,-1.9939,-1.992,-1.9957,-1.9956,-1.9978,-1.9976,-2.0065,-1.9999,-1.9998,-1.9998,-1.9998,0,-1.926,-1.9318,-1.9368,-1.941,-1.9476,-1.9507,-1.9571,-1.9604,-1.965,-1.9699,-1.9717,-1.9763,-1.9803,-1.9855,-1.9881,-1.995,-1.9965,-1.9982,-1.9988,-1.998,-1.9978,-2.0001,-1.9998,-2.0001,-2.0,-2.0,-1.9999,0,-1.931,-1.9345,-1.9422,-1.9483,-1.95,-1.9545,-1.9598,-1.964,-1.967,-1.9733,-1.9749,-1.9797,-1.9859,-1.9896,-1.9974,-1.9992,-2.0067,-2.0072,-2.0049,-2.0052,-2.0086,-2.0082,-2.0193,-2.0209,-2.0132,-2.0133,-2.0133,0,-1.9354,-1.9398,-1.9464,-1.9498,-1.953,-1.9584,-1.9622,-1.9655,-1.9693,-1.9757,-1.9792,-1.9855,-1.9906,-2.0005,-2.0047,-2.0107,-2.0113,-2.0147,-2.0122,-2.0112,-2.0113,-2.011,-2.0114,-2.0151,-2.0152,-2.0153,-2.0153,0,-1.9428,-1.9443,-1.9496,-1.9554,-1.9598,-1.9646,-1.9694,-1.9721,-1.9762,-1.9804,-1.9867,-1.9907,-1.9987,-2.0049,-2.0113,-2.0146,-2.0157,-2.0161,-2.0172,-2.0165,-2.0149,-2.0158,-2.006,-2.0158,-2.0157,-2.0157,-2.0157,-2.0157,-1.9476,-1.9516,-1.9569,-1.9627,-1.9666,-1.971,-1.9752,-1.9787,-1.984,-1.9907,-1.9923,-1.9989,-2.0042,-2.0129,-2.0163,-2.0216,-2.021,-2.0227,-2.0231,-2.0235,-2.0236,-2.0141,-2.0228,-2.0227,-2.0227,-2.0227,-2.0227,0,-1.9551,-1.9586,-1.9638,-1.9704,-1.975,-1.9755,-1.9808,-1.9846,-1.9903,-1.9951,-2.0002,-2.0074,-2.0134,-2.0181,-2.0243,-2.0276,-2.0282,-2.0291,-2.0289,-2.0296,-2.0237,-2.0221,-2.0284,-2.0284,-2.0284,-2.0284,-2.0284,-2.0284,-1.9596,-1.9664,-1.9685,-1.9773,-1.9807,-1.9871,-1.9901,-1.9942,-1.998,-2.006,-2.0109,-2.0139,-2.0187,-2.0252,-2.0308,-2.032,-2.0342,-2.0349,-2.0362,-2.0307,-2.03,-2.0294,-2.0279,-2.0354,-2.0354,-2.0417,-2.0418,-2.0418]},{"header":{"parameterUnit":"m.s-1","parameterCategory":1,"la1":30.2991,"la2":30.254,"lo1":-89.0895,"lo2":-89.0444,"dy":0.0017,"dx":0.0017,"nx":28,"ny":28,"refTime":"2024-05-31T03:00:00:Z","depth":0,"parameterNumber":3,"parameterNumberName":"V-component_of_WINDS"},"data":[0,0,0,0,0,0,0,0,0,0,0,0,0,0,0,0,0,0,0,0,0,0,0,0,0,0,0,0,0,0,0,0,0,0,0,0,0,0,0,0,0,0,0,0,0,0,0,0,0,0,0,0,0,0,0,0,0,0,4.0842,4.0843,0,4.095,4.0951,4.0952,4.0913,4.091,4.0908,4.0906,4.1011,4.1016,4.1021,0,0,0,0,0,0,0,0,0,0,0,0,0,4.0595,4.0599,4.0841,4.0843,4.0844,4.095,4.0951,4.0952,4.0913,4.091,4.0907,4.0904,4.1009,4.1015,4.1022,0,0,0,0,0,0,0,0,0,0,0,0,0,4.0702,4.0601,4.0841,4.0837,4.0838,4.0949,4.0951,4.0953,4.0914,4.091,4.0906,4.0903,4.1007,4.1015,4.1022,4.1142,0,0,4.1046,4.1049,0,0,0,0,0,0,0,0,4.0696,4.0711,4.0837,4.0838,4.0839,4.0914,4.0903,4.1016,4.0915,4.0885,4.0906,4.0901,4.0981,4.0991,4.1019,4.1147,4.1152,4.1046,4.1051,4.1054,4.1056,0,0,0,0,0,0,0,4.0689,4.0706,4.0884,4.0838,4.084,4.0828,4.084,4.0924,4.0952,4.0887,4.0885,4.0898,4.0981,4.1012,4.1021,4.1153,4.1046,4.1053,4.1058,4.106,4.1382,4.1386,0,0,0,0,0,0,4.0682,4.07,4.0881,4.0887,4.0757,4.0836,4.0848,4.0894,4.0951,4.0956,4.0901,4.0896,4.1001,4.1012,4.1025,4.1167,4.1054,4.1061,4.1066,4.1378,4.1383,4.1387,0,0,0,0,0,0,4.0676,4.0698,4.0876,4.0793,4.0815,4.0844,4.0895,4.0898,4.0928,4.0962,4.0966,4.0928,4.0998,4.1014,4.1113,4.117,4.1065,4.1072,4.1373,4.1379,4.1385,4.1453,0,0,0,0,0,0,4.067,4.0696,4.0744,4.0795,4.082,4.0965,4.0899,4.0902,4.0942,4.0936,4.0988,4.0993,4.0997,4.1102,4.1121,4.1178,4.1077,4.1368,4.1376,4.1383,4.1445,4.146,4.1473,0,0,0,0,0,4.0661,4.0758,4.0746,4.0768,4.088,4.0968,4.0982,4.0986,4.0947,4.0993,4.1015,4.0991,4.1161,4.1112,4.1133,4.1194,4.1364,4.1374,4.1382,4.1439,4.1457,4.1473,0,0,0,0,0,0,4.0711,4.0765,4.0752,4.0869,4.0915,4.0961,4.102,4.1006,4.1062,4.1054,4.1055,4.1067,4.1168,4.1191,4.1136,4.1312,4.1256,4.127,4.1293,4.131,4.1324,4.1315,4.1084,0,0,0,0,0,4.0737,4.0806,4.0848,4.0947,4.097,4.0992,4.103,4.103,4.1076,4.1094,4.1123,4.1167,4.123,4.1272,4.1332,4.1449,4.1458,4.1501,4.1515,4.1526,4.1537,4.1598,4.1617,4.1416,4.1416,4.1416,0,0,4.0788,4.0826,4.0869,4.0958,4.0993,4.1062,4.1008,4.1084,4.1135,4.1105,4.12,4.1223,4.1272,4.138,4.1429,4.1402,4.1595,4.1537,4.1546,4.1551,4.1609,4.1628,4.1645,4.1422,4.1421,4.142,0,0,4.0918,4.0955,4.104,4.1076,4.113,4.1144,4.1164,4.1214,4.1228,4.1324,4.1302,4.1362,4.1471,4.1507,4.1539,4.1681,4.166,4.1701,4.1771,4.1831,4.1847,4.1861,4.1909,4.1927,4.1712,4.1712,4.1712,0,4.0975,4.108,4.1085,4.1163,4.1201,4.118,4.1264,4.1299,4.1369,4.1395,4.1365,4.1501,4.1533,4.1648,4.1682,4.171,4.1731,4.1694,4.1845,4.1859,4.1872,4.1917,4.1936,4.1716,4.1716,4.1715,4.1715,0,4.1146,4.122,4.1282,4.1352,4.1397,4.1478,4.1493,4.1538,4.1534,4.1549,4.1646,4.1683,4.175,4.1777,4.1773,4.1891,4.1873,4.1844,4.1788,4.1895,4.1938,4.1956,4.1723,4.1721,4.172,4.1719,0,0,4.131,4.1381,4.1404,4.1434,4.1492,4.1548,4.1627,4.1693,4.1731,4.178,4.1844,4.1938,4.1911,4.1947,4.1947,4.2,4.2107,4.1964,4.1965,4.1987,4.2236,4.2256,4.2277,4.2094,4.2098,4.21,4.2231,0,4.1442,4.1583,4.1589,4.1716,4.1782,4.1762,4.183,4.1872,4.1889,4.1946,4.1964,4.2029,4.199,4.2011,4.2063,4.2083,4.2156,4.2074,4.2152,4.2154,4.2138,4.23,4.2321,4.2443,4.2248,4.2251,4.2253,0,4.1616,4.1671,4.1805,4.1852,4.188,4.1941,4.2001,4.2057,4.2103,4.2111,4.2153,4.2144,4.2222,4.2166,4.2272,4.2216,4.2248,4.2263,4.2267,4.2273,4.2209,4.2307,4.2482,4.25,4.228,4.2278,4.2276,0,4.1719,4.1827,4.192,4.1947,4.2005,4.2048,4.2074,4.2116,4.2155,4.2208,4.2232,4.2293,4.2325,4.2371,4.2378,4.2337,4.2484,4.2429,4.2491,4.2491,4.2522,4.2519,4.2702,4.2546,4.2546,4.2546,4.2545,0,4.1865,4.1946,4.1967,4.2024,4.2115,4.212,4.2209,4.2231,4.2269,4.2328,4.2315,4.2371,4.2378,4.2435,4.2441,4.2527,4.2542,4.2549,4.2549,4.2549,4.2548,4.2569,4.256,4.2551,4.255,4.2549,4.2548,0,4.1994,4.2012,4.2112,4.2158,4.2172,4.2236,4.2275,4.2328,4.2344,4.2419,4.2437,4.2461,4.2527,4.2539,4.2618,4.2621,4.2723,4.2716,4.2708,4.2706,4.2767,4.2761,4.2968,4.2994,4.2823,4.2825,4.2826,0,4.2085,4.2148,4.2201,4.2241,4.2269,4.2333,4.2372,4.238,4.2421,4.2478,4.2524,4.2589,4.2642,4.2748,4.2771,4.283,4.2823,4.2891,4.2831,4.2829,4.2821,4.2816,4.2822,4.2902,4.2904,4.2905,4.2907,0,4.2244,4.225,4.2308,4.237,4.2418,4.2466,4.2512,4.2545,4.2558,4.2605,4.2673,4.2714,4.2794,4.2858,4.2917,4.2941,4.2925,4.2926,4.2943,4.2942,4.2934,4.2937,4.2737,4.292,4.2919,4.2918,4.2917,4.2917,4.2356,4.241,4.2455,4.2521,4.2556,4.2599,4.2651,4.2673,4.2731,4.2797,4.2798,4.2872,4.2914,4.2992,4.302,4.3076,4.3054,4.308,4.3086,4.3091,4.3096,4.2927,4.3087,4.3087,4.3087,4.3086,4.3086,0,4.2512,4.254,4.2601,4.2665,4.2716,4.2699,4.2749,4.2791,4.2857,4.2899,4.2951,4.3028,4.309,4.3118,4.3178,4.3218,4.3212,4.3233,4.3229,4.3235,4.3114,4.3092,4.3237,4.3237,4.3237,4.3237,4.3237,4.3237,4.2599,4.2689,4.27,4.2806,4.2833,4.2906,4.2936,4.2974,4.3007,4.3095,4.3147,4.3165,4.32,4.3263,4.3318,4.3324,4.3346,4.337,4.3373,4.3259,4.3244,4.3229,4.3208,4.3376,4.3376,4.3489,4.349,4.3491]}]]